315P/LONEOS (2016)

Japanese version
Home page
Updated on March 3, 2018

---------------------------------------------------------------------

* Profile

Designation 315P/2013 V6
Recovery Date November 6, 2013
Magnitude 21.6 mag
Recoverer M. Micheli, Y. Fernandez, C. Lisse, H. Weaver (New Mexico)

* Pictures

* Orbital Elements

Epoch 2016 Nov. 28.0 TT = JDT 2457720.5
T 2016 Dec. 6.82742 TT                                  MPCW
q   2.4204209            (2000.0)            P               Q
n   0.08780382     Peri.   67.18908     -0.68638403     -0.66768527
a   5.0133393      Node    69.55182     +0.50163389     -0.72163035
e   0.5172038      Incl.   17.91509     +0.52653624     -0.18288251
P  11.23
From 2070 observations 2004 Nov. 3-2017 June 3, mean residual 0".5.

* Finding Charts

* Magnitudes Graph

        m1 = 11.0 + 5 log d + 10.0 log r  [    ,-300]  (             - 2016 Feb. 10)
        m1 =  3.2 + 5 log d + 25.0 log r  [-300,    ]  (2016 Feb. 10 -             )

---------------------------------------------------------------------

The orbital elements are published on M.P.E.C. 2017-L52.
The charts are made with StellaNavigator Ver.8 (AstroArts).
The magnitudes graphs are made with Comet for Windows.

---------------------------------------------------------------------

Copyright(C) Seiichi Yoshida (comet@aerith.net). All rights reserved.